sat.trackr.live / text

‹ back to catalog

STARLINK-35887

NORAD 66959 · 2025-288A

PAYLOAD ACTIVE UNKNOWN

§ Identity

Operator
Country
US
Launch date
2025-12-08
Launch site
AFETR
Launch vehicle
Mass (kg)
RCS (m²)

Purposes: comms

External: N2YO · Heavens-Above · Gunter

§ Orbital elements

Epoch: 2026-05-25T03:48:39.970944Z

Period
94.27 min
Inclination
42.9991°
Eccentricity
0.0000650
Mean motion
15.27580108 rev/d
Perigee alt
482.6 km
Apogee alt
483.5 km
Semi-major
6,861.2 km
B*
4.5074e-4
RAAN
311.4929°
Arg perigee
296.1163°
Mean anomaly
63.9622°
Rev number
2,698

§ Raw data

STARLINK-358871 66959U 25288A   26145.15879596  .00012162  00000+0  45074-3 0  99922 66959  42.9991 311.4929 0000650 296.1163  63.9622 15.27580108 26989

JSON: /api/v1/satellites/66959 · /tle

For live sub-satellite position, see the globe view (requires WebGL).

§ Visibility from observer

Set your observer location to see the next 7 days of passes ≥ 10°. The values pass through the URL so the page stays shareable.

No JS? Fill the form by hand. The geolocation button needs JavaScript.